Tracking 17143 objects as of 30-June-2015
HD Live streaming from Space Station

NAVSTAR 36 (USA 100)

Track NAVSTAR 36 (USA 100) now!
NAVSTAR 36 (USA 100) is classified as:


NORAD ID: 23027
Int'l Code: 1994-016A
Perigee: 19,924.3 km
Apogee: 20,455.0 km
Inclination: 54.4 °
Period: 718.0 minutes
Semi major axis: 26560 km
RCS: 2.0263 m2 (large)
Launch date: March 10, 1994
Source: United States (US)
PRN:
Your satellite tracking list
Your tracking list is empty





NASA's NSSDC Master Catalog

Two Line Element Set (TLE):
1 23027U 94016A   15180.36494731 -.00000047  00000-0  00000+0 0  9997
2 23027 054.3893 064.6177 0099910 004.5777 198.7719 02.00560566156102

Source of the keplerian elements: AFSPC

N2YO: 322